Location: 433rd Scouts Home(Lloyd Manor Park, Etobicoke )
(43.6722°N, 79.5542°W)
Time: 05:49:13
(UTC-04:00)

N. Korean satellite - Pass Details

Date: 25 September 2021
Orbit: 450 x 495 km, 97.3° (Epoch: 15 October)

Event Time Altitude Azimuth Distance (km) Brightness Sun altitude
Rises 05:47:52 0° 27° (NNE) 2,528 10.8 -15.4°
Reaches altitude 10° 05:50:20 10° 45° (NE) 1,654 10.2 -15.0°
Maximum altitude 05:53:01 20° 94° (E) 1,164 9.5 -14.5°
Drops below altitude 10° 05:55:43 10° 143° (SE) 1,662 9.6 -14.0°
Sets 05:58:11 0° 161° (SSE) 2,545 10.3 -13.6°
